• în România
  • Lista ţărilor
  • Pe 7 zile
  • Temperatura apei
  • Hartă satelitară
  • Meteo pe hartă
  • Widget-uri
  • user-avatar
    Intrare

    Meteo pe oră la Ganja

    Astăzi, 22 Iulie, Sâmbătă

    Timp Temperatura Precipitaţii Vânt Presiune Umiditate
    00:00 +28°C° 0 mm 3 m/s 724 mmHg 32%
    01:00 +27°C° 0 mm 3 m/s 724 mmHg 32%
    02:00 +27°C° 0 mm 3 m/s 724 mmHg 32%
    03:00 +26°C° 0 mm 2 m/s 724 mmHg 32%
    04:00 +27°C° 0 mm 2 m/s 724 mmHg 33%
    05:00 +27°C° 0 mm 2 m/s 724 mmHg 34%
    06:00 +27°C° 0 mm 2 m/s 725 mmHg 35%
    07:00 +29°C° 0 mm 3 m/s 725 mmHg 33%
    08:00 +31°C° 0 mm 3 m/s 725 mmHg 30%
    09:00 +34°C° 0 mm 4 m/s 725 mmHg 28%
    10:00 +35°C° 0 mm 4 m/s 725 mmHg 27%
    11:00 +36°C° 0 mm 5 m/s 725 mmHg 25%
    12:00 +39°C° 0 mm 5 m/s 724 mmHg 24%
    13:00 +39°C° 0 mm 5 m/s 724 mmHg 24%
    14:00 +40°C° 0 mm 5 m/s 724 mmHg 24%
    15:00 +40°C° 0 mm 6 m/s 723 mmHg 24%
    16:00 +39°C° 0 mm 5 m/s 723 mmHg 26%
    17:00 +39°C° 0 mm 5 m/s 723 mmHg 28%
    18:00 +37°C° 0 mm 5 m/s 723 mmHg 30%
    19:00 +35°C° 0 mm 4 m/s 723 mmHg 32%
    20:00 +33°C° 0 mm 4 m/s 723 mmHg 34%
    21:00 +30°C° 0 mm 4 m/s 723 mmHg 36%
    22:00 +29°C° 0 mm 3 m/s 723 mmHg 38%
    23:00 +29°C° 0 mm 3 m/s 723 mmHg 39%

    Mâine, 23 Iulie, Duminică

    Timp Temperatura Precipitaţii Vânt Presiune Umiditate
    00:00 +28°C° 0 mm 2 m/s 723 mmHg 40%
    01:00 +27°C° 0 mm 2 m/s 723 mmHg 41%
    02:00 +27°C° 0 mm 1 m/s 723 mmHg 41%
    03:00 +26°C° 0 mm 1 m/s 723 mmHg 42%
    04:00 +27°C° 0 mm 2 m/s 723 mmHg 42%
    05:00 +27°C° 0 mm 2 m/s 723 mmHg 42%
    06:00 +27°C° 0 mm 2 m/s 722 mmHg 42%
    07:00 +29°C° 0 mm 3 m/s 722 mmHg 38%
    08:00 +30°C° 0 mm 3 m/s 722 mmHg 34%
    09:00 +33°C° 0 mm 3 m/s 722 mmHg 30%
    10:00 +34°C° 0 mm 3 m/s 721 mmHg 28%
    11:00 +35°C° 0 mm 2 m/s 721 mmHg 27%
    12:00 +36°C° 0 mm 2 m/s 721 mmHg 25%
    13:00 +37°C° 0 mm 2 m/s 720 mmHg 25%
    14:00 +37°C° 0 mm 2 m/s 720 mmHg 24%
    15:00 +38°C° 0 mm 2 m/s 720 mmHg 24%
    16:00 +37°C° 0 mm 2 m/s 720 mmHg 25%
    17:00 +37°C° 0 mm 2 m/s 720 mmHg 26%
    18:00 +37°C° 0 mm 2 m/s 720 mmHg 27%
    19:00 +35°C° 0 mm 2 m/s 720 mmHg 29%
    20:00 +32°C° 0 mm 2 m/s 721 mmHg 30%
    21:00 +31°C° 0 mm 2 m/s 722 mmHg 32%
    22:00 +30°C° 0 mm 2 m/s 722 mmHg 35%
    23:00 +29°C° 0 mm 1 m/s 722 mmHg 39%

    Poimâine, 24 Iulie, Luni

    Timp Temperatura Precipitaţii Vânt Presiune Umiditate
    00:00 +28°C° 0 mm 1 m/s 722 mmHg 42%
    01:00 +27°C° 0 mm 1 m/s 722 mmHg 45%
    02:00 +26°C° 0 mm 2 m/s 722 mmHg 49%
    03:00 +26°C° 0 mm 2 m/s 722 mmHg 52%
    04:00 +26°C° 0 mm 2 m/s 722 mmHg 52%
    05:00 +26°C° 0 mm 2 m/s 722 mmHg 53%
    06:00 +26°C° 0 mm 2 m/s 722 mmHg 53%
    07:00 +28°C° 0 mm 2 m/s 722 mmHg 48%
    08:00 +29°C° 0 mm 2 m/s 722 mmHg 42%
    09:00 +31°C° 0 mm 2 m/s 722 mmHg 37%
    10:00 +33°C° 0 mm 3 m/s 722 mmHg 35%
    11:00 +35°C° 0 mm 4 m/s 721 mmHg 33%
    12:00 +36°C° 0 mm 4 m/s 721 mmHg 31%
    13:00 +37°C° 0 mm 5 m/s 721 mmHg 30%
    14:00 +38°C° 0 mm 6 m/s 720 mmHg 30%
    15:00 +39°C° 0 mm 6 m/s 720 mmHg 29%
    16:00 +38°C° 0 mm 6 m/s 720 mmHg 31%
    17:00 +38°C° 0 mm 6 m/s 720 mmHg 33%
    18:00 +36°C° 0 mm 6 m/s 720 mmHg 35%
    19:00 +34°C° 0 mm 5 m/s 720 mmHg 39%
    20:00 +33°C° 0 mm 5 m/s 721 mmHg 42%
    21:00 +30°C° 0 mm 5 m/s 721 mmHg 45%
    22:00 +29°C° 0 mm 4 m/s 721 mmHg 48%
    23:00 +28°C° 0 mm 4 m/s 721 mmHg 50%

    25 Iulie, Marţi

    Timp Temperatura Precipitaţii Vânt Presiune Umiditate
    00:00 +27°C° 0 mm 3 m/s 721 mmHg 52%
    01:00 +27°C° 0 mm 3 m/s 721 mmHg 53%
    02:00 +26°C° 0 mm 2 m/s 721 mmHg 53%
    03:00 +25°C° 0 mm 2 m/s 721 mmHg 54%
    04:00 +25°C° 0 mm 1 m/s 721 mmHg 53%
    05:00 +26°C° 0 mm 1 m/s 721 mmHg 52%
    06:00 +26°C° 0 mm 1 m/s 721 mmHg 50%
    07:00 +27°C° 0 mm 2 m/s 721 mmHg 47%
    08:00 +29°C° 0 mm 2 m/s 721 mmHg 43%
    09:00 +30°C° 0 mm 2 m/s 721 mmHg 40%
    10:00 +32°C° 0 mm 2 m/s 720 mmHg 38%
    11:00 +34°C° 0 mm 2 m/s 720 mmHg 35%
    12:00 +35°C° 0 mm 2 m/s 719 mmHg 33%
    13:00 +36°C° 0 mm 2 m/s 719 mmHg 32%
    14:00 +36°C° 0 mm 2 m/s 718 mmHg 32%
    15:00 +37°C° 0 mm 3 m/s 718 mmHg 31%
    16:00 +37°C° 0,1 mm 3 m/s 718 mmHg 32%
    17:00 +36°C° 0,1 mm 3 m/s 718 mmHg 34%
    18:00 +36°C° 0,1 mm 3 m/s 718 mmHg 35%
    19:00 +34°C° 0,1 mm 2 m/s 719 mmHg 38%
    20:00 +31°C° 0,1 mm 2 m/s 719 mmHg 42%
    21:00 +29°C° 0,1 mm 2 m/s 720 mmHg 45%
    22:00 +29°C° 0,1 mm 2 m/s 720 mmHg 46%
    23:00 +28°C° 0,1 mm 2 m/s 720 mmHg 48%

    26 Iulie, Miercuri

    Timp Temperatura Precipitaţii Vânt Presiune Umiditate
    00:00 +27°C° 0,1 mm 2 m/s 720 mmHg 50%
    01:00 +27°C° 0 mm 2 m/s 720 mmHg 50%
    02:00 +26°C° 0 mm 2 m/s 720 mmHg 51%
    03:00 +26°C° 0 mm 2 m/s 720 mmHg 52%
    04:00 +26°C° 0 mm 2 m/s 720 mmHg 51%
    05:00 +26°C° 0 mm 2 m/s 720 mmHg 50%
    06:00 +27°C° 0 mm 3 m/s 720 mmHg 49%
    07:00 +29°C° 0 mm 3 m/s 720 mmHg 44%
    08:00 +30°C° 0 mm 3 m/s 720 mmHg 38%
    09:00 +33°C° 0 mm 3 m/s 720 mmHg 33%
    10:00 +34°C° 0 mm 3 m/s 720 mmHg 32%
    11:00 +35°C° 0 mm 2 m/s 720 mmHg 30%
    12:00 +37°C° 0 mm 2 m/s 720 mmHg 29%
    13:00 +37°C° 0,1 mm 2 m/s 719 mmHg 28%
    14:00 +38°C° 0,1 mm 2 m/s 719 mmHg 28%
    15:00 +38°C° 0,1 mm 2 m/s 719 mmHg 27%
    16:00 +38°C° 0,1 mm 2 m/s 719 mmHg 29%
    17:00 +38°C° 0,1 mm 2 m/s 720 mmHg 31%
    18:00 +37°C° 0,1 mm 2 m/s 720 mmHg 32%
    19:00 +35°C° 0 mm 2 m/s 720 mmHg 35%
    20:00 +34°C° 0 mm 2 m/s 721 mmHg 38%
    21:00 +31°C° 0 mm 2 m/s 721 mmHg 41%
    22:00 +30°C° 0 mm 2 m/s 722 mmHg 43%
    23:00 +29°C° 0 mm 2 m/s 722 mmHg 45%

    27 Iulie, Joi

    Timp Temperatura Precipitaţii Vânt Presiune Umiditate
    00:00 +28°C° 0 mm 2 m/s 722 mmHg 47%
    01:00 +28°C° 0 mm 2 m/s 722 mmHg 48%
    02:00 +27°C° 0 mm 1 m/s 722 mmHg 48%
    03:00 +27°C° 0 mm 1 m/s 722 mmHg 49%
    04:00 +27°C° 0 mm 1 m/s 722 mmHg 48%
    05:00 +28°C° 0 mm 2 m/s 723 mmHg 46%
    06:00 +28°C° 0 mm 2 m/s 723 mmHg 45%
    07:00 +30°C° 0 mm 2 m/s 723 mmHg 41%
    08:00 +31°C° 0 mm 2 m/s 723 mmHg 37%
    09:00 +34°C° 0 mm 2 m/s 723 mmHg 33%
    10:00 +35°C° 0 mm 2 m/s 723 mmHg 32%
    11:00 +36°C° 0 mm 2 m/s 722 mmHg 30%
    12:00 +38°C° 0 mm 2 m/s 722 mmHg 28%
    13:00 +38°C° 0 mm 2 m/s 722 mmHg 28%
    14:00 +39°C° 0 mm 2 m/s 722 mmHg 27%
    15:00 +39°C° 0 mm 3 m/s 722 mmHg 27%
    16:00 +39°C° 0 mm 3 m/s 722 mmHg 29%
    17:00 +39°C° 0 mm 3 m/s 722 mmHg 30%
    18:00 +38°C° 0 mm 3 m/s 722 mmHg 32%
    19:00 +36°C° 0 mm 3 m/s 722 mmHg 34%
    20:00 +35°C° 0 mm 4 m/s 723 mmHg 36%
    21:00 +33°C° 0 mm 4 m/s 724 mmHg 38%
    22:00 +32°C° 0 mm 4 m/s 724 mmHg 40%
    23:00 +30°C° 0 mm 4 m/s 724 mmHg 42%
    Arată mai mult